GFSFLT2_sfc_dewp_159.txt.gz
Dewpoint
23 22 19 19 12 11 8 16 11 16 26 34 37 42 49 52 54 54 53 53 56 58 59 59 61 62 65 65 64 65 65 66
22 22 22 19 18 13 12 11 7 12 29 31 32 38 44 47 50 53 55 54 56 58 59 59 61 61 63 66 65 65 65 65
22 20 19 17 16 16 14 14 11 11 16 31 35 35 41 47 50 52 55 55 57 59 59 60 62 62 63 65 66 66 66 66
21 21 22 18 17 15 14 12 18 15 16 27 44 41 45 48 51 57 57 57 58 60 61 62 62 62 63 64 66 67 67 67
19 20 21 18 16 15 16 16 17 16 16 41 50 46 52 53 57 59 59 61 61 62 60 60 61 63 65 65 66 67 69 69
20 20 23 23 24 18 15 16 15 16 15 28 45 49 54 56 56 57 60 60 61 62 61 62 61 61 66 67 67 68 69 70
31 27 26 25 24 24 19 18 18 19 19 27 43 48 53 55 57 57 57 58 61 61 60 62 62 63 65 68 68 69 70 70
34 34 32 25 25 26 25 24 21 27 29 36 50 51 51 52 56 54 55 60 61 63 63 62 63 63 63 68 69 69 70 71
34 37 35 27 26 24 25 28 28 27 28 40 50 51 51 52 54 57 60 62 63 63 62 66 63 66 66 68 69 69 69 68
36 35 28 28 35 35 28 29 34 35 36 39 46 52 52 54 55 59 62 56 56 58 59 61 66 67 68 69 68 66 64 64
33 34 34 35 38 37 35 34 39 39 45 49 53 54 55 59 57 58 59 55 57 58 57 61 63 68 67 66 64 63 62 60
36 33 31 34 41 44 39 33 42 42 52 54 52 46 49 58 58 59 57 57 57 60 60 63 68 67 65 63 62 60 58 57
32 33 34 44 48 48 32 34 41 45 48 54 50 49 50 58 58 59 61 62 64 65 66 66 65 65 62 61 59 56 54 52
34 32 31 48 48 39 44 48 45 48 53 52 53 54 55 57 58 59 60 64 66 65 64 64 65 63 61 59 57 53 51 50
42 40 42 49 50 52 52 51 48 49 52 53 52 56 56 56 59 58 59 64 64 64 63 63 63 62 59 58 53 51 50 50
41 39 47 49 48 53 53 53 53 54 54 57 55 57 57 58 59 57 62 63 63 63 62 61 62 61 59 55 52 51 50 50
42 45 47 50 53 53 54 55 55 57 57 57 59 59 60 59 59 59 62 62 63 62 62 61 61 60 57 54 52 51 51 50
41 45 47 47 50 55 54 55 56 56 56 57 57 59 59 59 60 61 61 61 60 60 61 61 61 59 55 53 52 51 50 50
45 50 53 52 54 55 55 56 57 57 57 56 58 57 59 59 60 60 60 61 60 60 61 61 61 59 56 54 52 51 51 51

GFSFLT2_sfc_dewp_162.txt.gz
Dewpoint
23 22 21 18 12 12 10 11 11 15 21 23 31 36 43 50 54 54 54 54 55 57 59 60 61 62 64 65 65 65 66 66
23 23 21 19 18 14 13 15 10 13 20 22 25 23 33 47 54 55 56 54 56 58 59 60 61 62 63 64 64 65 66 66
22 20 19 17 17 16 15 15 14 12 15 25 30 28 32 37 48 55 56 55 56 59 59 60 61 63 64 65 65 65 67 67
22 23 22 19 17 16 15 14 16 14 15 22 29 34 46 44 46 54 57 57 56 59 60 60 61 62 63 65 66 66 67 67
20 25 22 19 18 16 16 16 19 16 16 24 40 44 47 50 52 55 57 59 59 60 59 60 61 62 62 64 66 66 68 67
20 21 23 21 20 17 16 16 16 16 17 18 21 29 44 54 56 57 59 60 61 61 61 61 62 63 64 65 66 68 68 68
31 32 29 26 25 19 17 20 21 24 18 19 23 36 48 54 56 57 59 60 61 61 62 62 63 65 67 66 67 68 69 69
34 34 37 30 27 26 25 25 20 23 26 27 41 52 53 54 56 56 58 60 62 62 62 62 63 64 67 68 68 69 69 70
32 37 36 31 30 27 26 26 26 27 28 36 45 50 51 53 56 56 59 61 62 64 63 63 63 63 63 67 69 70 70 71
32 36 30 32 33 34 28 28 32 34 33 37 41 52 52 53 55 58 61 62 63 63 64 66 66 66 68 69 70 68 67 66
33 34 34 34 36 38 37 35 41 40 40 49 53 53 51 55 56 58 61 59 57 58 59 62 66 68 68 67 66 64 63 62
35 32 31 34 42 47 46 34 45 45 45 52 52 41 41 57 57 58 59 57 58 59 61 66 66 67 65 64 62 60 59 57
30 32 34 40 46 48 34 36 48 46 47 54 51 47 52 58 57 58 56 57 58 63 62 66 66 64 62 60 58 57 55 53
32 31 30 47 45 41 44 50 49 49 50 52 54 55 57 58 58 59 57 61 63 64 65 64 64 62 60 56 56 54 54 52
40 38 41 48 47 50 52 51 52 52 53 54 55 55 56 57 58 60 60 63 65 64 64 64 63 61 57 54 54 53 51 50
40 39 45 45 49 51 54 53 54 55 56 57 57 57 56 57 58 59 63 64 64 64 63 62 62 60 56 55 54 52 51 50
41 42 44 47 51 52 52 55 55 56 57 56 57 59 58 58 58 60 63 63 64 63 62 61 60 57 55 53 52 51 50 50
36 41 44 45 48 51 53 52 54 55 56 56 57 57 61 59 60 62 63 63 63 62 62 61 59 56 54 53 52 51 50 50
39 44 46 50 51 52 54 54 55 56 56 56 57 59 60 60 61 60 62 62 62 62 62 61 58 55 54 53 52 51 50 51

GFSFLT2_sfc_dewp_165.txt.gz
Dewpoint
24 25 24 19 20 17 17 14 14 17 24 24 26 27 28 39 51 54 56 56 56 58 59 62 62 63 65 67 68 67 67 69
25 23 22 21 19 16 19 22 20 19 23 21 27 24 27 33 45 53 57 57 57 58 59 60 62 64 65 66 67 67 67 68
23 23 23 21 21 21 19 20 19 19 20 29 33 33 32 31 40 44 57 58 58 59 60 61 62 62 64 65 66 66 67 69
23 24 23 22 23 22 20 24 20 20 18 25 28 28 32 39 46 50 54 59 59 60 61 61 62 63 63 66 65 66 68 70
23 23 23 23 23 23 21 22 27 21 21 26 30 36 38 42 51 55 55 60 60 60 62 63 63 64 64 66 67 66 69 68
22 26 28 28 23 21 21 21 23 21 23 28 30 33 33 37 50 55 58 59 61 61 61 63 65 67 67 66 67 68 68 67
30 31 32 32 30 25 21 24 24 23 25 28 34 33 40 50 54 57 59 60 60 61 63 64 65 66 67 66 68 69 69 68
35 33 34 34 34 30 25 22 24 25 27 31 36 46 50 50 54 56 58 60 61 62 63 63 64 66 67 69 69 71 70 69
32 34 35 31 33 33 30 28 26 26 30 35 41 48 50 52 55 57 58 61 63 63 63 64 64 66 67 68 70 71 72 71
32 35 30 31 35 37 35 35 30 31 35 39 43 46 49 51 55 58 59 61 64 65 65 67 66 65 67 70 71 71 72 72
30 29 31 32 33 37 40 37 45 44 44 45 51 51 46 53 55 57 59 62 64 66 67 69 69 68 68 69 71 71 70 71
32 29 27 30 32 46 46 36 47 48 48 48 51 38 38 54 55 56 60 64 63 61 64 68 70 70 68 67 67 66 68 68
30 30 30 38 43 48 39 39 49 50 50 50 52 53 56 57 58 58 60 60 60 62 64 67 66 65 62 58 56 57 58 59
34 32 30 46 45 43 48 50 52 52 53 53 55 56 57 58 58 59 59 58 61 65 66 67 66 65 63 61 58 57 57 56
40 35 45 48 44 45 49 52 50 52 53 55 55 56 58 59 58 59 59 58 62 64 65 67 66 64 61 62 60 56 55 55
43 41 44 44 42 50 51 51 51 51 52 54 55 56 58 60 58 60 60 60 65 64 63 63 64 62 61 59 57 55 54 55
43 43 41 38 48 49 48 49 49 52 52 53 55 56 57 60 60 60 62 63 64 65 63 62 62 60 58 56 55 54 54 53
35 41 45 44 43 44 48 48 48 52 52 53 55 57 58 61 62 61 64 65 66 65 63 62 60 59 57 55 54 53 52 52
40 42 41 44 45 47 48 48 48 52 53 55 56 57 59 62 63 61 65 66 67 65 63 61 61 59 57 56 55 54 52 53

GFSFLT2_sfc_dewp_168.txt.gz
Dewpoint
25 24 21 20 20 14 15 17 16 17 21 21 24 23 19 22 30 39 49 53 55 57 57 61 62 64 64 66 69 68 67 68
24 24 24 23 21 15 16 21 21 19 24 23 26 22 22 23 28 34 48 55 56 57 58 60 62 63 64 66 68 68 66 68
25 24 23 23 21 20 17 19 19 18 19 25 27 25 24 24 26 34 41 55 58 59 59 61 62 63 64 65 67 68 68 68
24 24 24 23 22 19 18 23 21 21 19 23 25 25 26 27 31 40 50 54 59 60 61 61 62 62 63 65 65 67 68 70
25 23 26 24 23 23 21 20 26 21 21 25 27 30 30 31 37 46 52 55 59 60 62 62 62 63 63 65 66 66 69 68
21 25 28 26 24 24 23 21 23 21 24 27 27 28 29 33 39 43 56 57 60 60 62 64 64 66 66 65 66 68 68 68
28 26 25 26 26 27 28 26 25 24 24 26 29 28 30 41 48 52 56 57 60 60 63 66 66 67 68 66 68 68 69 69
34 30 29 27 27 28 28 27 27 26 26 28 30 37 40 40 46 50 55 58 59 61 63 65 66 68 68 68 69 70 70 70
33 31 31 30 30 30 30 30 29 26 29 30 32 36 43 46 50 52 54 58 61 61 62 64 65 68 68 69 70 71 72 73
33 34 30 31 32 31 32 32 31 32 32 33 38 43 45 47 50 52 56 58 63 63 65 66 66 66 68 69 71 71 72 72
32 30 31 29 32 33 34 35 38 41 42 40 45 48 49 54 56 55 57 60 64 65 67 68 68 68 69 70 71 71 72 72
33 30 29 31 30 32 33 35 40 45 46 47 48 37 44 56 55 56 58 63 64 65 67 68 69 69 70 70 71 71 71 72
30 31 30 32 35 43 36 36 48 49 50 52 52 53 56 57 58 57 58 62 63 64 66 70 70 69 68 66 62 61 61 62
31 31 29 38 39 38 44 48 48 50 52 53 54 54 55 57 59 58 59 60 60 62 65 67 68 67 65 63 62 62 61 61
31 30 45 47 44 43 43 47 49 49 50 51 52 53 55 56 59 58 59 60 61 65 67 67 68 68 66 65 65 63 63 62
39 38 40 40 44 41 48 49 50 49 49 49 50 52 54 56 59 60 61 60 63 66 67 66 66 66 66 66 64 63 61 56
39 41 42 43 42 44 42 42 43 46 47 49 50 52 55 56 59 61 61 61 65 65 66 66 66 64 64 64 64 63 60 57
34 39 42 43 43 42 42 42 44 46 46 50 52 53 55 57 60 63 62 63 66 65 66 65 65 63 63 63 62 59 55 54
37 39 39 40 40 41 43 44 47 46 47 51 52 51 54 57 61 62 64 65 65 66 65 65 64 63 62 62 60 59 55 54

GFSFLT2_sfc_dewp_171.txt.gz
Dewpoint
23 21 19 18 17 13 9 10 14 19 22 20 22 23 22 20 25 28 35 41 49 54 56 59 60 62 65 69 70 69 67 70
23 24 23 20 19 18 17 20 21 19 23 22 27 25 22 22 25 31 38 46 49 54 55 57 59 62 64 65 68 69 67 67
25 24 23 23 23 20 18 17 18 18 20 26 28 27 25 23 26 27 34 43 53 55 57 56 60 61 63 64 67 68 68 69
24 24 23 23 24 23 19 24 20 19 18 21 24 24 26 27 27 31 43 44 54 57 58 57 60 61 63 65 64 67 70 73
24 22 24 24 24 22 21 19 26 20 20 24 27 29 29 28 30 38 44 50 56 58 60 61 61 64 62 64 66 65 70 71
21 25 26 28 25 24 21 20 23 21 24 26 27 28 29 30 34 38 49 53 57 58 60 62 66 68 68 66 66 69 68 69
25 24 24 24 25 26 26 26 26 25 25 26 29 30 30 31 34 42 50 53 57 59 63 68 69 70 70 67 70 68 71 69
31 28 27 27 26 26 25 25 26 26 27 28 30 33 32 34 36 44 47 55 57 59 62 64 66 71 70 71 71 72 73 71
32 30 30 29 29 28 28 28 27 27 29 30 30 32 33 38 43 46 53 55 59 60 61 64 65 68 69 71 73 74 75 75
33 34 31 32 30 30 29 30 29 31 31 33 33 35 40 48 52 54 52 56 61 62 64 66 66 67 69 70 74 75 75 75
32 31 32 30 30 29 30 31 32 34 35 37 40 41 44 54 54 55 55 59 62 63 65 68 68 69 71 70 72 72 72 74
32 31 30 31 29 34 34 31 31 33 41 42 46 42 48 55 55 56 55 62 63 64 66 67 68 68 69 70 71 71 73 73
30 30 29 31 31 32 34 33 47 47 49 50 51 53 55 55 57 57 57 60 64 65 67 68 69 68 70 71 70 69 71 69
30 30 30 32 31 33 39 45 47 48 49 50 52 53 54 54 56 58 57 60 62 64 68 70 69 70 71 70 67 68 68 66
31 33 46 44 44 43 42 43 45 48 48 49 49 50 52 54 55 58 58 60 59 61 67 67 68 68 68 68 68 67 66 64
43 37 39 44 44 43 42 45 47 46 45 46 47 49 49 52 55 57 59 60 61 65 66 67 69 69 69 68 67 66 65 65
42 43 44 38 42 44 42 44 43 44 44 46 46 48 50 52 56 57 61 61 63 66 66 67 68 68 68 68 67 65 64 62
31 39 42 44 43 44 44 43 43 44 44 46 47 48 51 52 56 59 62 63 66 66 67 67 67 66 66 66 66 64 61 59
36 37 37 38 38 39 41 41 41 42 44 45 46 48 50 52 55 58 62 64 65 66 68 67 66 65 66 66 66 62 59 59

GFSFLT2_sfc_dewp_174.txt.gz
Dewpoint
21 18 18 17 17 11 9 9 10 14 21 24 24 23 22 22 23 25 30 33 47 54 58 61 62 64 66 70 71 71 71 72
24 23 21 20 18 15 17 23 20 16 25 24 30 26 24 23 23 26 36 43 46 52 57 60 61 64 66 70 71 71 70 71
26 24 23 22 21 20 17 19 20 18 20 29 31 31 27 24 25 27 37 45 51 56 58 61 61 64 66 69 71 71 70 70
24 24 24 23 24 23 22 27 22 21 19 23 26 25 25 27 28 34 46 43 49 57 60 60 62 63 65 67 69 70 71 71
23 22 23 23 23 22 21 21 31 19 19 30 32 29 30 30 36 49 45 52 52 57 62 61 62 63 65 66 68 69 71 71
21 25 24 25 23 26 22 21 21 20 22 25 34 34 34 32 41 38 51 56 56 59 63 64 65 66 68 67 67 70 70 70
26 25 24 23 23 25 27 26 24 25 26 28 36 32 34 39 41 42 46 51 56 61 66 69 69 69 70 68 69 69 71 71
29 26 25 25 25 24 25 25 25 25 25 27 34 38 35 36 39 42 51 52 56 62 66 67 70 70 69 71 70 70 72 71
31 29 29 27 28 28 28 28 28 26 29 30 31 38 37 49 52 54 50 56 60 62 65 66 67 71 71 72 72 73 74 74
35 35 31 31 32 31 31 30 30 31 32 34 37 38 44 51 54 56 56 58 63 65 69 69 68 69 71 72 76 74 75 75
33 31 32 31 31 30 32 33 32 32 32 35 40 38 55 55 55 54 55 60 64 65 69 74 71 72 72 73 73 75 74 75
34 31 30 34 31 32 34 33 36 39 39 39 46 45 54 55 55 56 57 59 65 64 65 69 72 73 73 73 74 74 75 76
32 33 31 32 31 32 33 37 44 45 49 50 51 53 55 54 55 56 57 58 63 65 68 70 72 71 73 73 73 75 75 76
38 33 32 42 38 39 46 44 42 47 49 49 51 51 53 53 55 55 58 58 60 66 69 71 72 72 73 72 71 72 72 71
37 36 45 42 41 45 48 44 43 47 48 48 48 49 49 51 55 56 59 60 60 62 71 70 71 73 72 69 69 70 69 67
40 39 40 43 45 45 46 48 51 50 49 44 45 46 47 49 51 55 58 62 60 63 69 69 70 70 72 69 69 68 67 66
38 38 40 40 41 44 46 51 53 55 48 43 43 45 46 51 56 56 59 61 64 69 67 69 70 71 68 68 67 66 66 64
30 42 45 42 41 44 46 49 54 54 48 44 45 48 50 51 56 58 60 63 66 68 69 69 70 69 69 68 68 66 64 63
40 39 40 40 38 37 41 41 42 42 43 43 44 44 48 50 55 57 60 62 66 67 70 69 69 68 69 69 67 65 62 61